Voltar ao catálogo

STARLINK-31457

AtivoComunicaçõesVLEO
NORAD 59414·PAYLOAD·🇺🇸 United States

Lançado Apr 5, 2024 de Cape Canaveral Space Force Station

Loading…

Próximas Passagens (próximas 24 horas)

TLE

AtualizadoSource: CelesTrak SupGP

Época: Sep 15, 2026, 02:44 UTC

1 59414C 24064S   26258.11437500 -.00021788  00000+0 -78877-3 0  2588
2 59414  43.0043  59.5506 0001631 282.0001 115.4516 15.27605721    13

Acompanhe STARLINK-31457 em tempo real com AllMySat

Download on the App Store